Weather in Krasnopartizanskiy

Russia / Rostov Oblast     46°20′17″N   43°08′53″E
temp.,
°C
wind,
m/s
gust,
m/s
humid.,
%
clouds,
%
prec.,
mm/h
press.,
hPa
HPBL,
m
1 march, mon
mon100:00+2nw2285100 0.1 102032
03:00+2wsw3488100 0.2 1021106
06:00+1wsw359392 0.1 1022110
09:00+3w468387 0.1 1024429
12:00+4wnw577896 0.1 1025755
15:00+5wnw456975 0.2 1025852
18:00+3nw358798 0.3 1026312
21:00+1nnw239491 0.3 102741
2 march, tue
tue200:00+1wnw228886 0.0 102859
03:00+1wnw238891 0.0 1028148
06:000wsw349492 0.1 102890
09:00+2w468270 0.1 1028599
12:00+4w586891 0.1 10261118
15:00+6wsw7116196 0.1 10231488
18:00+4w6136965 0.0 1021538
21:00+3w7157582 0.0 1020980
3 march, wed
wed300:00+2w91566100 0.0 1018892
03:00+3w111875100 0.0 1016998
06:00+3w121986100 0.1 10141165
09:00+2w131895100 1.7 10141112
12:00+2wnw81296100 2.3 1015672
15:00+3wnw61077100 3.1 10161006
18:00+2nw7137589 0.2 1019537
21:00+1nw6127481 0.2 1022406
4 march, thu
thu400:000nw6108361 0.0 1023368
03:00−1nw598230 0.0 1025318
06:00−1wnw47730 0.0 1026222
09:00+1w57610 0.0 1026555
12:00+5w68480 0.0 10251043
15:00+6wsw68490 0.0 10231144
18:00+3wsw47650 0.0 1022114
21:00+1sw45700 0.0 102280
5 march, fri
fri500:00+1sw487432 0.0 1021148
03:00+1wsw597316 0.0 1020191
06:00+1wsw510730 0.0 1020226
09:00+5w813672 0.0 1020977
12:00+8wsw7115833 0.0 10201349
15:00+9wsw7105416 0.0 10191445
18:00+6sw47710 0.0 1019124
21:00+5sw46750 0.0 1020103